Tracking 23582 objects as of 1-Aug-2021
HD Live streaming from Space Station
objects crossing your sky now

COSMOS 2251 DEB

Track COSMOS 2251 DEB now!
10-day predictions


NORAD ID: 34054
Int'l Code: 1993-036JR
Perigee: 684.1 km
Apogee: 729.2 km
Inclination: 74.0 °
Period: 98.8 minutes
Semi major axis: 7077 km
RCS: 0.028 m2 (small)
Launch date: June 16, 1993
Source: Commonwealth of Independent States (former USSR) (CIS)
Launch site: PLESETSK MISSILE AND SPACE COMPLEX (PKMTR)

Note: This is SATELLITE DEBRIS
aabbcc
Your satellite tracking list
Your tracking list is empty




NASA's NSSDC Master Catalog

Two Line Element Set (TLE):
1 34054U 93036JR  21212.46456260  .00000954  00000-0  21252-3 0  9991
2 34054  74.0365 108.7914 0031879 248.7196 286.4380 14.58050548659638
Source of the keplerian elements: AFSPC